Regional Weather Roundup
Issued by NWS

Home | Current Version | Previous Version | Graphics & Text | Print | Product List | Glossary On
Versions: 1 2 3 4 5 6 7 8 9 10 11 12 13 14 15 16 17 18 19 20 21 22 23 24 25 26 27 28 29 30 31 32 33 34 35 36 37 38 39 40 41 42 43 44 45 46 47 48 49 50
161
ASUS43 KLMK 312002
RWRKY
KENTUCKY REGIONAL WEATHER ROUNDUP
NATIONAL WEATHER SERVICE LOUISVILLE KY
400 PM EDT TUE MAY 31 2016

NOTE "FAIR" INDICATES FEW OR NO CLOUDS BELOW 12,000 FEET
WITH NO SIGNIFICANT WEATHER AND/OR OBSTRUCTIONS TO VISIBILITY.

KYZ001>023-026-027-061>063-070>075-312100-
WESTERN AND SOUTH CENTRAL KENTUCKY

CITY           SKY/WX    TMP DP  RH WIND       PRES   REMARKS
PADUCAH        MOSUNNY   85  61  44 S7        29.93S
HENDERSON      CLOUDY    88  61  40 S8        29.92F
OWENSBORO      PTSUNNY   87  62  42 SE8       29.94F
HOPKINSVILLE   NOT AVBL
BOWLING GREEN  CLOUDY    86  63  45 NE6       29.95F
GLASGOW        NOT AVBL
$$

KYZ024-025-028>034-038-045-046-053-312100-
NORTH CENTRAL KENTUCKY

CITY           SKY/WX    TMP DP  RH WIND       PRES   REMARKS
LOUISVILLE/SDF CLOUDY    86  59  39 VRB7      29.95F
LOUISVILLE/LOU MOSUNNY   86  59  39 E6        29.96F
FORT KNOX      NOT AVBL
$$

KYZ035>037-039>044-047>052-055>060-089>105-312100-
NORTHEAST KENTUCKY

CITY           SKY/WX    TMP DP  RH WIND       PRES   REMARKS
LEXINGTON      CLOUDY    83  55  38 E7        29.99F
COVINGTON      CLOUDY    84  61  45 W7        29.98F
FRANKFORT      CLOUDY    85  57  38 E9        29.97F
$$

KYZ054-064>069-076>088-106>120-312100-
SOUTHEAST KENTUCKY

CITY           SKY/WX    TMP DP  RH WIND       PRES   REMARKS
JACKSON        SUNNY     84  56  38 CALM      29.99F
LONDON         PTSUNNY   85  59  41 VRB5      29.98F
SOMERSET       NOT AVBL
MIDDLESBORO    NOT AVBL
MONTICELLO     MOCLDY    82  65  56 N14       29.98F
$$





USA.gov is the U.S. government's official web portal to all federal, state and local government web resources and services.